Hettinger, ND

4:43 AM MDT on May 30, 2017 (GMT -0600)
Hettinger Municipal

Weather History for KHEI - August, 2013

Change the Weather History Date:

Friday, August 23, 2013

  Actual Average Record
Temperature  
Mean Temperature 77 °F -  
Max Temperature 90 °F 83 °F 98 °F (1997)
Min Temperature 64 °F 51 °F 36 °F (2008)
Cooling Degree Days 12 4  
Month to date cooling degree days 65 125  
Year to date cooling degree days 163 325  
Since 1 June cooling degree days 156 320  
Growing Degree Days 27 (Base 50)    
Moisture  
Dew Point 63 °F    
Average Humidity 65    
Maximum Humidity 93    
Minimum Humidity 38    
Precipitation  
Precipitation 0.00 in 0.03 in 0.14 in (2014)
Month to date precipitation 1.52 1.29  
Year to date precipitation 16.22 11.87  
Sea Level Pressure  
Sea Level Pressure 29.84 in    
Wind  
Wind Speed 12 mph (SE)    
Max Wind Speed 13 mph    
Max Gust Speed 16 mph    
Visibility 10 miles    
Events      
T = Trace of Precipitation, MM = Missing Value Source: NWS Daily Summary

Daily Weather History Graph

Daily Weather History Graph

Search for Another Location

Airport or City:

Trip Planner

Search our weather history database for the weather conditions in past years. The results will help you decide how hot, cold, wet, or windy it might be!

Date:

Astronomy

Aug. 23, 2013 Rise Set
Actual Time 6:00 AM MDT 7:44 PM MDT
Civil Twilight 5:28 AM MDT 8:16 PM MDT
Nautical Twilight 4:49 AM MDT 8:55 PM MDT
Astronomical Twilight 4:07 AM MDT 9:37 PM MDT
Moon 8:50 PM MDT (8/23) 9:11 AM MDT (8/23)
Length of Visible Light 14h 47m
Length of Day
13h 44m
Waning Gibbous, 91% of the Moon is Illuminated
Aug 23
Waning Gibbous
Aug 28
Last Quarter
Sep 5
New
Sep 12
First Quarter
Sep 19
Full

Hourly Weather History & Observations

Time (MDT) Temp. Heat Index Dew Point Humidity Pressure Visibility Wind Dir Wind Speed Gust Speed Precip Events Conditions
12:53 AM 68.0 °F - 54.0 °F 61% 29.99 in 10.0 mi SE 11.5 mph - N/A   Clear
1:53 AM 68.0 °F - 57.9 °F 70% 29.98 in 10.0 mi SE 11.5 mph - N/A   Clear
2:53 AM 66.9 °F - 60.1 °F 79% 29.96 in 10.0 mi SE 9.2 mph - N/A   Clear
3:53 AM 66.9 °F - 61.0 °F 81% 29.94 in 10.0 mi SE 10.4 mph - N/A   Clear
4:53 AM 66.0 °F - 62.1 °F 87% 29.92 in 10.0 mi SE 10.4 mph - N/A   Clear
5:53 AM 64.9 °F - 62.1 °F 90% 29.92 in 10.0 mi ESE 9.2 mph - N/A   Clear
6:53 AM 66.0 °F - 62.1 °F 87% 29.91 in 10.0 mi SE 8.1 mph - N/A   Clear
7:53 AM 70.0 °F - 64.0 °F 81% 29.90 in 10.0 mi SE 8.1 mph - N/A   Partly Cloudy
8:53 AM 73.0 °F - 64.9 °F 76% 29.89 in 10.0 mi SE 15.0 mph - N/A   Partly Cloudy
9:53 AM 78.1 °F - 64.9 °F 64% 29.86 in 10.0 mi SSE 17.3 mph 27.6 mph N/A   Clear
10:53 AM 82.9 °F 84.6 °F 64.9 °F 54% 29.85 in 10.0 mi SSE 16.1 mph 31.1 mph N/A   Clear
11:53 AM 84.9 °F 86.1 °F 64.0 °F 49% 29.84 in 10.0 mi SSE 17.3 mph 28.8 mph N/A   Clear
12:53 PM 84.9 °F 85.9 °F 63.0 °F 48% 29.82 in 10.0 mi SSE 18.4 mph 23.0 mph N/A   Clear
1:53 PM 87.1 °F 87.8 °F 63.0 °F 44% 29.80 in 10.0 mi SE 18.4 mph 25.3 mph N/A   Clear
2:53 PM 90.0 °F 90.0 °F 61.0 °F 38% 29.78 in 10.0 mi SSE 19.6 mph 24.2 mph N/A   Clear
3:53 PM 89.1 °F 90.0 °F 63.0 °F 42% 29.77 in 10.0 mi SSE 18.4 mph 27.6 mph N/A   Clear
4:53 PM 89.1 °F 90.3 °F 64.0 °F 43% 29.75 in 10.0 mi SE 12.7 mph 19.6 mph N/A   Clear
5:53 PM 86.0 °F 87.3 °F 64.0 °F 48% 29.75 in 10.0 mi SE 12.7 mph 21.9 mph N/A   Clear
7:53 PM 80.1 °F 81.9 °F 64.9 °F 60% 29.74 in 10.0 mi SE 9.2 mph - N/A   Clear
8:53 PM 78.1 °F - 66.0 °F 66% 29.76 in 10.0 mi ESE 10.4 mph - N/A   Clear
9:53 PM 75.0 °F - 66.0 °F 73% 29.75 in 10.0 mi ESE 6.9 mph - N/A   Clear
10:53 PM 73.0 °F - 66.0 °F 79% 29.74 in 10.0 mi ESE 6.9 mph - N/A   Clear
11:53 PM 72.0 °F - 66.0 °F 81% 29.73 in 10.0 mi ESE 6.9 mph - N/A   Clear